www.pogodaiklimat.ru

Погода и климат >> Архив погоды >> Россия >> Ямало-Ненецкий АО >> Тазовский


АРХИВ ПОГОДЫ в Тазовском

Время (UTC), дата Ветер
(напр.,м/с)
 
Видим.   Явления Облачность Т
(С)
Тd
(С)
f
(%)
Тe
(С)
Тes
(С)
Комфортность P
(гПа)
Po
(гПа)
Тmin
(С)
Tmax
(С)
R
(мм)
R24
(мм)
S
(см)
18 18.05 В 9-12
{12}
50 км 3/0
[Ci fib]
+0.9 -2.3 79 -7 -7 1009.9 1006.5
21 18.05 В 9-11
{12}
50 км 3/0
[Ac trans]
-0.6 -3.2 83 -9 -9 1008.2 1004.7
00 19.05 В 9-12
{12}
50 км 3/0
[Ci]
-0.5 -3.2 82 -8 -8 1006.5 1003.0
03 19.05 В 11-14
{14}
50 км 9/0
[Ac trans Ci fib]
+0.6 -1.9 83 -8 -8 1004.9 1001.5 -0.7 75
06 19.05 В 11-14
{14}
50 км 10/0
[Ac trans Cs]
+1.3 -1.3 83 -7 -7 1003.8 1000.4
09 19.05 В 10-12
{14}
20 км слаб. дождь 10/0
[Ac As]
+1.5 -0.9 84 -6 -6 1003.1 999.7
12 19.05 В 8-10
{14}
20 км 10/0
[As op]
+1.5 -0.6 86 -6 -5 1002.6 999.2
15 19.05 СВ 8
{11}
20 км слаб. дождь 10/0
[As op]
+0.9 0.0 94 -7 -7 1002.1 998.7 +1.6 2
18 19.05 СВ 9-12
{12}
20 км слаб. дождь 10/0
[As op]
+1.0 +0.1 94 -7 -7 1000.3 996.9
21 19.05 В 8
{12}
20 км слаб. дождь 10/0
[Ac As]
+0.8 +0.3 96 -7 -7 999.3 995.9
00 20.05 СВ 7
{12}
10 км слаб. дождь 10/0 90 м
[As op]
+0.8 +0.4 97 -6 -6 999.1 995.7
03 20.05 СВ 7 20 км слаб. дождь 10/0 150 м
[As op]
+0.8 +0.4 97 -6 -6 999.4 995.9 +0.7 4 69
06 20.05 СВ 5
{10}
20 км слаб. дождь 10/8 240 м
[Frnb As op]
+1.1 +0.3 94 -5 -5 1000.0 996.5
09 20.05 СВ 6
{10}
20 км слаб. дождь 10/10 360 м
[Sc]
+0.3 -0.7 93 -6 -6 1001.3 997.8
12 20.05 СВ 5
{10}
10 км слаб. переохл. дождь (гололёд) [диам. гололёда 3 мм] 10/6 150 м
[Frnb As op]
-0.5 -1.4 94 -7 -7 1002.3 998.8
15 20.05 СВ 6
{10}
20 км {дождь} [диам. гололёда 4 мм] 10/5 240 м
[St Ac As]
-1.3 -2.5 92 -8 -8 1002.8 999.3 +1.1 3
18 20.05 СВ 7-12
{12}
20 км {дождь} [диам. гололёда 4 мм] 3/3 200 м
[St]
-5.4 -7.0 88 -14 -14 1002.9 999.4
21 20.05 СВ 8-12
{13}
50 км [диам. гололёда 4 мм] 1/1 200 м
[St]
-8.9 -10.6 87 -18 -18 1002.8 999.2
00 21.05 С 7-12
{13}
50 км [диам. гололёда 4 мм] ясно -9.6 -11.5 86 -19 -18 1002.6 999.0
03 21.05 С 5
{12}
50 км [диам. гололёда 1 мм] 4/3 200 м
[St Ci fib]
-7.1 -9.8 81 -15 -12 1002.6 999.1 -9.6 66
06 21.05 С 7-12
{15}
20 км [диам. гололёда 0 мм] 10/10 270 м
[St]
-4.7 -6.9 85 -13 -13 1001.9 998.4
09 21.05 С 7-13
{15}
20 км 10/6 500 м
[Sc Ci sp]
-3.4 -6.1 82 -11 -11 1001.8 998.3
12 21.05 С 9-15
{16}
1000 м ливневой снег {метель} 10/8 180 м
[Cb cap Ac As]
-4.5 -5.6 92 -14 -14 1002.3 998.8
15 21.05 С 8-13
{16}
2000 м ливневой снег {метель} 10/8 180 м
[Cb cap Ac As]
-5.3 -6.2 93 -14 -14 1002.7 999.2 -3.2 2
18 21.05 С 7-12
{16}
20 км слаб. ливневой снег {метель} 10/6 240 м
[Cb cap Cs]
-6.2 -7.4 91 -15 -15 1003.1 999.6
21 21.05 С 6-12
{14}
20 км {ливн. осадки, метель} 9/5 210 м
[St Ci fib]
-8.1 -9.7 88 -16 -16 1003.1 999.5
00 22.05 С 5
{14}
50 км {ливн. осадки, метель} 8/0
[Ac trans Ci fib]
-9.7 -11.7 85 -18 -17 1003.6 1000.0
03 22.05 СЗ 6-10
{11}
50 км 6/0
[Ac trans Ci fib]
-6.8 -9.9 79 -15 -13 1003.2 999.6 -9.8 0.5 68
06 22.05 СЗ 6-10
{11}
50 км 3/0
[Ci fib]
-5.1 -8.4 78 -13 -9 1003.8 1000.3
09 22.05 СЗ 6-10
{12}
50 км 4/3 300 м
[St Ac trans]
-4.0 -7.2 78 -11 -9 1004.9 1001.4
12 22.05 СЗ 5
{12}
50 км 4/4 300 м
[St]
-4.1 -6.9 81 -11 -10 1005.7 1002.2
15 22.05 СЗ 5
{10}
50 км 9/8 150 м
[St Ac trans]
-6.0 -7.5 89 -13 -13 1006.0 1002.4 -3.5
18 22.05 СЗ 5 20 км 10/6 180 м
[St Ac As]
-6.6 -8.0 90 -14 -14 1006.1 1002.5
21 22.05 С 4 20 км 10/6 150 м
[St Ac As]
-7.1 -8.5 90 -14 -14 1006.0 1002.4
00 23.05 СЗ 4 20 км 10/6 150 м
[St Ac As]
-7.3 -8.8 89 -14 -14 1006.0 1002.4
03 23.05 СЗ 4 50 км 10/6 150 м
[St Ac As]
-6.1 -8.0 86 -13 -12 1006.1 1002.6 -7.6 68
06 23.05 СЗ 4 50 км 10/6 210 м
[St Ac As]
-4.3 -6.8 83 -11 -10 1006.4 1002.9
09 23.05 СЗ 4 50 км 9/6 300 м
[St Ac trans]
-3.1 -6.3 79 -9 -8 1006.9 1003.4
12 23.05 З 3 50 км 9/5 360 м
[Sc Ac trans]
-2.7 -5.9 79 -8 -7 1007.6 1004.0
15 23.05 СЗ 1 50 км 9/5 360 м
[Sc Ac trans]
-4.3 -6.9 82 -7 -6 1007.6 1004.1 -2.3
18 23.05 С 1 20 км 8/5 420 м
[Sc Ac trans]
-6.0 -7.9 86 -8 -8 1007.5 1003.9
21 23.05 В 3 20 км 4/0
[]
-8.8 -9.9 92 -15 -15 1006.8 1003.2
00 24.05 В 5 50 км 4/0
[Ac trans]
-7.6 -9.1 89 -15 -15 1005.4 1001.8
03 24.05 В 8-11
{11}
20 км 10/5 180 м
[St Ac As]
-3.5 -5.2 88 -12 -12 1003.5 1000.0 -9.1 66
06 24.05 В 9-13
{13}
50 км {ливн. осадки} 8/0
[Ac trans Ci fib]
-0.6 -3.5 81 -9 -8 1000.7 997.2
09 24.05 ЮВ 8-12
{13}
50 км 10/0
[Ac trans Cs]
+2.0 -1.5 78 -5 -4 998.4 995.0
12 24.05 ЮВ 6-12
{13}
50 км 9/3 1000 м
[Sc Ac trans]
+2.8 -0.7 78 -3 -2 997.2 993.8
15 24.05 ЮВ 5
{12}
20 км 10/0
[Ac As]
+3.1 -0.5 77 -2 -2 996.0 992.6 +3.7 0.0
18 24.05 ЮВ 3
{12}
20 км 9/0
[Ac trans]
+2.9 -0.6 78 -1 -1 995.0 991.6
21 24.05 ЮВ 4 20 км слаб. ливневой дождь 10/5 720 м
[Cb cap Ac As]
+1.5 +0.2 91 -4 -4 992.6 989.2
00 25.05 З 8-12
{12}
20 км {ливн. осадки} 10/5 500 м
[Sc Cs]
-0.0 -0.9 94 -8 -8 993.6 990.2
03 25.05 З 6
{12}
50 км 8/3 1000 м
[Sc Ac trans]
+1.0 -4.2 68 -5 -4 995.4 991.9 -0.1 2 62
06 25.05 ЮЗ 4-10
{12}
50 км 3/3 1000 м
[Sc]
+2.4 -3.9 63 -2 +3 997.2 993.8
09 25.05 Ю 5
{11}
50 км 8/0
[Ac trans Ci fib]
+2.7 -4.1 61 -2 +1 998.4 995.0
12 25.05 Ю 2 50 км 9/3 600 м
[Sc Ac trans Ci fib]
+2.5 -3.1 67 -0 +1 999.2 995.8
15 25.05 ЮВ 1 20 км 8/3 1000 м
[Sc Ac trans]
+0.8 -3.0 76 -1 -1 998.8 995.3 +3.2

 

Местоположение метеостанции Тазовский (Ямало-Ненецкий АО, Россия): широта 67.47 долгота 78.73 высота над уровнем моря 28 м.

В архиве по умолчанию представлена погода в Тазовском за последнюю неделю. Архивные данные за месяц целиком и за предыдущие месяцы, начиная с января 2011 года, Вы можете получить, выбрав интересующий диапазон дат из раскрывающегося списка и нажав кнопку "Ввод!".


*Определитесь, кто Вы:
робот инопланетянин человек

Внимание! Время в таблицах - всемирное. Для получения местного времени необходимо прибавить поправку, которая равна 5 ч.

Смотрите также архив погоды в соседних городах и на ближайших метеорологических станциях:

Погода в Уренгое (Ямало-Ненецкий АО, Россия) (170 км)
Погода в Новом Уренгое (Ямало-Ненецкий АО, Россия) (175 км)
Погода в Антипаюте (Ямало-Ненецкий АО, Россия) (195 км)
Погода в Советской Речке (Красноярский край, Россия) (231 км)
Погода в Новом Порте (Ямало-Ненецкий АО, Россия) (249 км)
Погода в Красноселькупске (Ямало-Ненецкий АО, Россия) (256 км)
Погода в Пангодах (Ямало-Ненецкий АО, Россия) (261 км)
Погода в Ныде (Ямало-Ненецкий АО, Россия) (268 км)
Погода в Тарко-Сале (Ямало-Ненецкий АО, Россия) (287 км)
Погода в Игарке (Красноярский край, Россия) (334 км)

Пояснения к столбцам:

Ветер - указаны скорость ветра в м/с - средняя за 10 мин, порывы в срок и между сроками (в фигурных скобках) и направление, откуда дует ветер: С - северный, СВ - северо-восточный, В - восточный, ЮВ - юго-восточный, Ю - южный, ЮЗ - юго-западный, З - западный, СЗ - северо-западный.
Видимость - горизонтальная дальность видимости в метрах или километрах. При видимости от 1 до 10 км при отсутствии осадков обычно наблюдается дымка, при ухудшении видимости до 1 км и менее - туман. В сухую погоду видимость может ухудшаться дымом, пылью или мглою.
Явления - указаны атмосферные явления, наблюдавшиеся в срок или в последний час перед сроком; фигурными скобками обозначены явления, наблюдавшиеся между сроками (за 1-3 часа до срока); квадратными скобками обозначены град или гололедные отложения с указанием их диаметра в мм.
Облачность - указаны через наклонную черту общая и нижняя облачность в баллах и высота нижней границы облаков в метрах; квадратными скобками обозначены формы облаков: Ci - перистые, Cs - перисто-слоистые, Cc - перисто-кучевые, Ac - высококучевые, As - высокослоистые, Sc - слоисто-кучевые, Ns - слоисто-дождевые, Cu - кучевые, Cb - кучево-дождевые. Подробнее классификацию облаков см. в Атласе облаков (PDF).
T - Температура воздуха - температура, измеренная на высоте 2 м над землей.
Td - Температура точки росы - температура, при понижении до которой содержащийся в воздухе водяной пар достигнет насыщения.
f - Относительная влажность воздуха - влажноcть воздуха, измеренная на высоте 2 м над землей.
Te - Эффективная температура - температура, которую ощущает одетый по сезону человек в тени. Характеристика душности погоды. При расчете учитывается влияние влажности воздуха и скорости ветра на теплоощущения человека.
Tes - Эффективная температура на солнце - температура, которую ощущает человек, с поправкой на солнечный нагрев. Характеристика знойности погоды. Зависит от высоты солнца над горизонтом, облачности и скорости ветра. Ночью, в пасмурную погоду, а также при ветре 12 м/с и более поправка равна нулю.
P - Атмосферное давление - приведенное к уровню моря атмосферное давление.
Po - Атмосферное давление - измеренное на уровне метеостанции атмосферное давление.
Tmin - Минимальная температура - минимум температуры воздуха на высоте 2 м над землей.
Tmax - Максимальная температура - максимум температуры воздуха на высоте 2 м над землей.
R - Количество осадков - Количество выпавших осадков за период времени, мм. При наведении курсора мыши на число - период времени, за который выпало указанное количество осадков.
R24 - Количество осадков - Количество выпавших осадков за 24 часа, мм.
S - Снежный покров - Высота снежного покрова, см. При наведении курсора мыши на число - состояние снежного покрова и степень покрытия местности в баллах.